Volver al catálogo

STARLINK-2055

ActivoComunicacionesVLEO
NORAD 47358·PAYLOAD·🇺🇸 United States

Lanzado Jan 20, 2021 desde Cape Canaveral Space Force Station

Loading…

Próximos Pases (próximas 24 horas)

TLE

ActualizadoSource: CelesTrak SupGP

Época: Sep 14, 2026, 21:41 UTC

1 47358C 21005K   26257.90395833  .00060856  00000+0  16454-2 0  2570
2 47358  53.1557 235.3253 0003342  54.4427  61.7127 15.37120582    15

Sigue STARLINK-2055 en tiempo real con AllMySat

Download on the App Store